EW6338 Weather Reports


Display with metric or nautical units.
time (UTC)temp
F
wind
direction
speed
MPH
gust
MPH
rain 1hr
in
rain 24hr
in
rain mn
in
humidity
%
barometer
mb
20201022090032 59 229 0.0 0.0 0.00 0.01 0.00 96 1021.4
20201022084523 59 229 0.0 0.0 0.00 0.01 0.00 96 1021.2
20201022083019 59 229 0.0 0.0 0.00 0.01 0.00 96 1021.2
20201022081520 59 229 0.0 0.0 0.00 0.01 0.00 96 1021.0
20201022080010 60 229 0.0 0.0 0.00 0.01 0.00 96 1020.9
20201022074658 60 229 0.0 0.0 0.00 0.01 0.00 96 1020.7
20201022073245 60 229 0.0 0.0 0.00 0.01 0.00 96 1020.7
20201022071637 61 229 0.0 0.0 0.00 0.01 0.00 96 1020.6
20201022070157 60 229 0.0 0.0 0.00 0.01 0.00 96 1020.6
20201022064633 61 20 0.0 0.0 0.00 0.01 0.00 96 1020.7
20201022063259 61 20 0.0 0.0 0.00 0.01 0.00 96 1020.9
20201022061657 61 153 0.0 0.0 0.00 0.01 0.00 96 1021.0
20201022060139 61 153 0.0 0.0 0.00 0.01 0.00 96 1021.0
20201022054717 61 153 0.0 0.0 0.00 0.01 0.00 96 1021.1
20201022053058 61 153 0.0 0.0 0.00 0.01 0.00 96 1021.0
20201022051731 62 153 0.0 0.0 0.00 0.01 0.00 96 1021.0
20201022050144 62 153 0.0 0.0 0.00 0.01 0.00 96 1020.8
20201022044557 62 153 0.0 1.0 0.00 0.01 0.00 96 1020.7
20201022043221 62 162 0.0 0.0 0.00 0.01 0.00 96 1020.5
20201022041612 62 278 0.0 1.0 0.00 0.01 0.00 96 1020.5
20201022040225 62 112 0.0 0.0 0.00 0.01 0.00 96 1020.6
20201022034644 62 112 0.0 0.0 0.00 0.01 0.01 96 1020.5
20201022033153 63 63 0.0 1.0 0.00 0.01 0.01 96 1020.6
20201022031619 63 249 0.0 2.0 0.00 0.01 0.01 96 1020.6
20201022030114 62 125 0.0 1.0 0.00 0.01 0.01 96 1020.5
20201022024603 62 191 0.0 1.0 0.00 0.01 0.01 96 1020.6
20201022023116 62 219 0.0 3.0 0.00 0.01 0.01 96 1020.6
20201022021555 62 105 0.0 2.0 0.00 0.01 0.01 96 1020.6
20201022020144 61 114 0.0 0.0 0.00 0.01 0.01 96 1020.4
20201022014545 62 281 0.0 2.0 0.00 0.01 0.01 96 1020.3
20201022013043 61 94 0.0 1.0 0.00 0.01 0.01 97 1020.2
20201022011655 61 129 0.0 1.0 0.00 0.01 0.01 97 1020.2
20201022010136 60 97 0.0 1.0 0.00 0.01 0.01 97 1020.4
20201022004551 58 158 0.0 2.0 0.00 0.01 0.01 96 1020.5
20201022003136 57 16 0.0 0.0 0.00 0.01 0.01 96 1020.6
20201022001541 57 289 0.0 0.0 0.00 0.01 0.01 96 1020.5
20201022000042 56 108 0.0 0.0 0.00 0.01 0.01 95 1020.7
20201021234537 56 108 0.0 0.0 0.00 0.01 0.01 95 1020.8
20201021233022 56 108 0.0 0.0 0.00 0.01 0.01 95 1020.9
20201021231535 57 108 0.0 0.0 0.00 0.01 0.01 95 1020.7
20201021230119 57 107 0.0 0.0 0.00 0.01 0.01 95 1020.8
20201021224620 57 108 0.0 0.0 0.00 0.01 0.01 95 1020.9
20201021223042 57 108 0.0 0.0 0.00 0.01 0.01 95 1020.9
20201021221533 58 108 0.0 0.0 0.00 0.01 0.01 95 1020.8
20201021220051 58 107 0.0 0.0 0.00 0.01 0.01 94 1020.9
20201021214605 58 107 0.0 0.0 0.00 0.01 0.01 94 1020.7
20201021213035 59 108 0.0 0.0 0.00 0.01 0.01 94 1020.7
20201021211547 59 108 0.0 0.0 0.00 0.01 0.01 94 1020.9
20201021210035 60 108 0.0 0.0 0.00 0.01 0.01 94 1021.0
20201021204524 60 107 0.0 0.0 0.00 0.01 0.01 95 1021.0
20201021203026 59 107 0.0 0.0 0.00 0.01 0.01 95 1021.0
20201021201525 60 124 0.0 0.0 0.00 0.01 0.01 95 1021.1
20201021200045 59 101 0.0 0.0 0.00 0.01 0.01 95 1021.2
20201021194521 59 98 0.0 0.0 0.00 0.01 0.01 95 1021.7
20201021193020 59 122 0.0 0.0 0.00 0.01 0.01 95 1021.6
20201021191539 59 122 0.0 0.0 0.00 0.01 0.01 95 1021.7
20201021190023 59 108 0.0 0.0 0.00 0.01 0.01 95 1022.2
20201021184717 59 106 0.0 0.0 0.00 0.01 0.01 95 1022.4
20201021183152 58 106 0.0 0.0 0.00 0.01 0.01 95 1022.6
20201021181651 58 106 0.0 1.0 0.00 0.01 0.01 95 1022.9
20201021180200 58 114 0.0 0.0 0.00 0.01 0.01 96 1023.1
20201021174759 58 122 0.0 1.0 0.00 0.01 0.01 95 1023.3
20201021173125 58 126 0.0 2.0 0.00 0.01 0.01 95 1023.4
20201021171640 58 89 0.0 1.0 0.00 0.01 0.01 96 1023.4
20201021170213 58 134 0.0 1.0 0.00 0.01 0.01 96 1023.7
20201021164658 57 116 0.0 1.0 0.00 0.01 0.01 96 1024.2
20201021163219 58 108 0.0 0.0 0.00 0.01 0.01 96 1024.2
20201021161627 57 110 0.0 1.0 0.00 0.01 0.01 96 1024.7
20201021160105 57 95 0.0 1.0 0.00 0.01 0.01 96 1024.8
20201021154558 57 94 0.0 0.0 0.00 0.01 0.01 96 1025.1
20201021153136 57 162 0.0 1.0 0.00 0.01 0.01 96 1025.1
20201021151710 57 98 0.0 1.0 0.00 0.01 0.01 96 1025.2
20201021150153 57 84 0.0 1.0 0.00 0.01 0.01 96 1025.2
20201021144558 57 116 0.0 1.0 0.00 0.01 0.01 96 1025.5
20201021143044 56 101 0.0 1.0 0.00 0.01 0.01 96 1025.5
20201021141620 56 118 0.0 2.0 0.00 0.01 0.01 96 1025.6
20201021140133 56 114 0.0 3.0 0.01 0.01 0.01 96 1025.5
20201021134613 56 347 0.0 1.0 0.01 0.01 0.01 96 1025.6
20201021133102 56 96 0.0 1.0 0.01 0.01 0.01 96 1025.7
20201021131746 55 122 0.0 1.0 0.01 0.01 0.01 96 1025.8
20201021130123 55 131 0.0 0.0 0.00 0.00 0.00 96 1025.9
20201021124558 55 86 0.0 0.0 0.00 0.00 0.00 96 1025.9
20201021123114 55 129 0.0 1.0 0.00 0.00 0.00 96 1025.9
20201021121549 55 74 0.0 2.0 0.00 0.00 0.00 96 1026.0
20201021120100 55 212 0.0 2.0 0.00 0.00 0.00 96 1026.0
20201021114540 55 80 0.0 2.0 0.00 0.00 0.00 96 1025.7
20201021113155 55 4 0.0 0.0 0.00 0.00 0.00 96 1025.7
20201021111554 55 4 0.0 2.0 0.00 0.00 0.00 96 1025.6
20201021110034 55 108 0.0 1.0 0.00 0.00 0.00 96 1025.3
20201021104556 55 46 0.0 3.0 0.00 0.00 0.00 96 1025.2
20201021103109 55 101 0.0 0.0 0.00 0.00 0.00 96 1025.2
20201021101521 55 68 0.0 1.0 0.00 0.00 0.00 95 1025.2
20201021100023 55 99 0.0 0.0 0.00 0.00 0.00 95 1025.4
20201021094526 56 321 0.0 1.0 0.00 0.00 0.00 95 1025.3
20201021093024 56 63 0.0 1.0 0.00 0.00 0.00 95 1025.1
20201021091513 56 56 0.0 1.0 0.00 0.00 0.00 95 1025.1